Weather reports worldwide

Advertisment
Chino, ca, United States of America (2074348): temperature & dewpoint: 28.07.2020 13:00:00 - 03.08.2020 13:00:00 (PDT)Chino, ca, United States of America (2074348): wind speed: 28.07.2020 13:00:00 - 03.08.2020 13:00:00 (PDT)Chino, ca, United States of America (2074348): wind direction: 28.07.2020 13:00:00 - 03.08.2020 13:00:00 (PDT)Chino, ca, United States of America (2074348): reduced air pressure: 28.07.2020 13:00:00 - 03.08.2020 13:00:00 (PDT)Chino, ca, United States of America (2074348): visibility: 28.07.2020 13:00:00 - 03.08.2020 13:00:00 (PDT)
Date & Time tt [°C] td [°C] ff [km/h] ff [kn] dd ppp [hPa] vv [km]
03.08.2020 13:00:00 36,1 15,0 18 10 WNW 1013,0 16
03.08.2020 12:00:00 35,0 12,2 11 6 WNW 1013,3 16
03.08.2020 11:00:00 32,2 13,9 5 3 S 1013,9 16
03.08.2020 10:00:00 28,9 15,6 8 4 S 1014,1 16
03.08.2020 09:00:00 25,0 16,1 5 3 - 1014,4 16
03.08.2020 08:00:00 21,1 15,6 5 3 S 1014,4 16
03.08.2020 07:00:00 20,0 15,6 0 0 N 1014,0 11
03.08.2020 06:00:00 18,3 14,4 0 0 N 1013,8 11
03.08.2020 05:00:00 17,8 13,9 0 0 N 1013,5 13
03.08.2020 04:00:00 18,3 14,4 0 0 N 1013,5 15
03.08.2020 03:00:00 19,4 15,0 0 0 N 1013,5 16
03.08.2020 02:00:00 19,4 15,0 0 0 N 1013,9 15
03.08.2020 01:00:00 20,0 15,0 0 0 N 1014,1 16
03.08.2020 00:00:00 20,6 15,0 5 3 S 1014,1 16
02.08.2020 23:00:00 20,6 15,0 8 4 WSW 1014,4 16
02.08.2020 22:00:00 21,1 15,0 5 3 W 1014,3 16
02.08.2020 21:00:00 23,3 15,6 13 7 WNW 1013,6 16
02.08.2020 20:00:00 24,4 15,6 13 7 W 1013,0 16
02.08.2020 19:00:00 28,3 15,6 21 11 W 1012,7 16
02.08.2020 18:00:00 31,7 15,0 24 13 W 1012,7 16
02.08.2020 17:00:00 33,3 15,0 22 12 WSW 1012,9 16
02.08.2020 16:00:00 35,0 14,4 26 14 W 1013,0 16
02.08.2020 15:00:00 37,2 13,9 24 13 W 1013,3 16
02.08.2020 14:00:00 37,2 13,3 21 11 W 1013,3 16
02.08.2020 13:00:00 37,2 11,7 11 6 SSW 1013,7 16
02.08.2020 12:00:00 36,1 7,8 8 4 - 1014,1 16
02.08.2020 11:00:00 32,8 12,8 0 0 N 1014,4 16
02.08.2020 10:00:00 30,6 13,9 0 0 N 1014,8 16
02.08.2020 09:00:00 26,1 13,9 0 0 N 1015,1 16
02.08.2020 08:00:00 23,3 15,0 0 0 N 1015,0 16
02.08.2020 07:00:00 19,4 14,4 0 0 N 1014,6 8
02.08.2020 06:00:00 17,8 13,3 0 0 N 1014,0 10
02.08.2020 05:00:00 17,8 13,9 0 0 N 1013,6 13
02.08.2020 04:00:00 19,4 13,9 0 0 N 1013,5 16
02.08.2020 03:00:00 20,0 13,9 5 3 SE 1013,5 16
02.08.2020 02:00:00 22,2 13,3 5 3 WSW 1013,3 16
02.08.2020 01:00:00 20,6 13,9 8 4 NW 1013,3 13
02.08.2020 00:00:00 22,8 14,4 5 3 S 1013,3 16
01.08.2020 23:00:00 24,4 13,9 0 0 N 1013,4 16
01.08.2020 22:00:00 25,0 13,9 5 3 SW 1013,5 16
01.08.2020 21:00:00 26,1 13,3 11 6 NNW 1013,0 16
01.08.2020 20:00:00 28,3 12,2 9 5 SW 1012,6 16
01.08.2020 19:00:00 32,2 10,6 16 9 W 1012,3 16
01.08.2020 18:00:00 33,9 11,1 22 12 W 1012,2 16
01.08.2020 17:00:00 35,6 10,0 26 14 W 1012,3 16
01.08.2020 16:00:00 37,2 10,6 31 17 W 1012,3 16
01.08.2020 15:00:00 37,2 11,1 29 16 WNW 1012,4 15
01.08.2020 14:00:00 37,8 11,7 21 11 WNW 1012,6 16
01.08.2020 13:00:00 38,9 8,3 16 9 W 1012,6 16
01.08.2020 12:00:00 40,0 0,0 16 9 WSW 1012,5 16
01.08.2020 11:00:00 37,2 3,9 11 6 WNW 1012,7 16
01.08.2020 10:00:00 33,9 5,6 0 0 N 1012,7 16
01.08.2020 09:00:00 28,3 9,4 0 0 N 1012,6 16
01.08.2020 08:00:00 25,0 10,6 0 0 N 1012,2 16
01.08.2020 07:00:00 21,1 10,0 0 0 N 1011,6 13
01.08.2020 06:00:00 18,9 11,1 0 0 N 1011,1 10
01.08.2020 05:00:00 18,9 11,1 0 0 N 1010,8 13
01.08.2020 04:00:00 19,4 10,6 5 3 N 1010,7 11
01.08.2020 03:00:00 21,7 10,6 0 0 N 1010,9 16
01.08.2020 02:00:00 21,1 10,6 8 4 N 1011,3 10
01.08.2020 01:00:00 23,3 9,4 0 0 N 1011,6 16
01.08.2020 00:00:00 23,9 9,4 0 0 N 1011,9 15
31.07.2020 23:00:00 26,7 8,3 0 0 N 1011,8 16
31.07.2020 22:00:00 27,8 7,2 9 5 W 1011,7 16
31.07.2020 21:00:00 29,4 5,6 11 6 W 1011,4 16
31.07.2020 20:00:00 32,8 2,8 15 8 WSW 1010,6 16
31.07.2020 19:00:00 36,7 3,9 22 12 WSW 1010,2 16
31.07.2020 18:00:00 39,4 6,1 22 12 WSW 1010,0 16
31.07.2020 17:00:00 40,6 10,0 26 14 WSW 1010,4 16
31.07.2020 16:00:00 41,7 7,2 22 12 WSW 1011,0 16
31.07.2020 15:00:00 41,7 5,6 24 13 W 1011,5 16
31.07.2020 14:00:00 41,1 7,2 16 9 WNW 1011,8 16
31.07.2020 13:00:00 41,1 6,7 18 10 WNW 1012,1 16
31.07.2020 12:00:00 40,0 11,7 8 4 WNW 1012,3 16
31.07.2020 11:00:00 36,7 9,4 0 0 N 1012,6 15
31.07.2020 10:00:00 33,3 11,1 0 0 N 1012,7 11
31.07.2020 09:00:00 30,0 11,7 0 0 N 1012,8 10
31.07.2020 08:00:00 26,1 13,9 0 0 N 1012,7 10
31.07.2020 07:00:00 21,7 13,3 0 0 N 1012,3 6
31.07.2020 06:00:00 21,7 12,8 0 0 N 1011,8 11
31.07.2020 05:00:00 21,1 12,8 0 0 N 1011,6 10
31.07.2020 04:00:00 22,2 12,2 0 0 N 1011,5 16
31.07.2020 03:00:00 23,3 12,2 0 0 N 1011,5 16
31.07.2020 02:00:00 23,3 12,8 0 0 N 1011,7 13
31.07.2020 01:00:00 24,4 12,2 0 0 N 1012,0 15
31.07.2020 00:00:00 25,0 11,7 0 0 N 1012,1 16
30.07.2020 23:00:00 25,0 11,1 8 4 SW 1012,2 16
30.07.2020 22:00:00 27,2 11,1 0 0 N 1012,4 16
30.07.2020 21:00:00 28,3 10,0 8 4 SW 1012,0 16
30.07.2020 20:00:00 31,1 9,4 16 9 WSW 1011,8 16
30.07.2020 19:00:00 33,3 10,6 22 12 WSW 1011,5 16
30.07.2020 18:00:00 35,6 11,1 26 14 WSW 1011,4 16
30.07.2020 17:00:00 37,8 11,1 26 14 W 1011,5 16
30.07.2020 16:00:00 39,4 10,0 22 12 W 1011,5 16
30.07.2020 15:00:00 39,4 10,0 16 9 W 1011,9 16
30.07.2020 14:00:00 39,4 11,7 16 9 WNW 1012,2 16
30.07.2020 13:00:00 37,8 12,2 5 3 - 1012,9 16
30.07.2020 12:00:00 34,4 12,2 5 3 N 1013,5 16
30.07.2020 11:00:00 30,6 13,3 0 0 N 1014,2 13
30.07.2020 10:00:00 27,8 13,9 8 4 - 1014,4 13
30.07.2020 09:00:00 24,4 13,9 5 3 SE 1014,5 11
30.07.2020 08:00:00 21,7 13,9 0 0 N 1014,4 11
30.07.2020 07:00:00 18,3 13,9 0 0 N 1014,0 10
30.07.2020 06:00:00 17,8 13,3 8 4 SE 1013,4 11
30.07.2020 05:00:00 18,3 13,9 0 0 N 1012,7 13
30.07.2020 04:00:00 19,4 13,9 8 4 SSE 1012,5 15
30.07.2020 03:00:00 20,0 13,9 0 0 N 1012,8 15
30.07.2020 02:00:00 20,0 13,3 9 5 W 1013,1 16
30.07.2020 01:00:00 21,1 13,9 0 0 N 1012,9 15
30.07.2020 00:00:00 21,7 13,3 8 4 W 1012,9 16
29.07.2020 23:00:00 22,8 13,9 5 3 WSW 1012,9 16
29.07.2020 22:00:00 24,4 14,4 11 6 NW 1012,8 16
29.07.2020 21:00:00 25,0 14,4 11 6 W 1012,3 16
29.07.2020 20:00:00 26,7 14,4 15 8 W 1011,5 16
29.07.2020 19:00:00 30,0 14,4 21 11 WSW 1010,9 16
29.07.2020 18:00:00 32,8 14,4 22 12 WSW 1010,5 16
29.07.2020 17:00:00 33,9 13,3 22 12 W 1010,6 16
29.07.2020 16:00:00 34,4 12,2 18 10 W 1010,8 16
29.07.2020 15:00:00 35,6 13,3 22 12 WSW 1011,1 16
29.07.2020 14:00:00 35,6 11,7 15 8 W 1011,3 16
29.07.2020 13:00:00 35,0 13,3 18 10 W 1011,8 16
29.07.2020 12:00:00 32,2 13,9 5 3 - 1012,3 16
29.07.2020 11:00:00 28,9 13,3 0 0 N 1012,9 13
29.07.2020 10:00:00 25,6 13,9 0 0 N 1013,1 10
29.07.2020 09:00:00 22,2 13,9 0 0 N 1013,5 10
29.07.2020 08:00:00 20,0 13,9 0 0 N 1013,4 11
29.07.2020 07:00:00 17,8 13,9 0 0 N 1013,1 10
29.07.2020 06:00:00 16,7 12,8 0 0 N 1012,6 10
29.07.2020 05:00:00 17,2 12,8 0 0 N 1012,0 15
29.07.2020 04:00:00 17,2 12,8 0 0 N 1011,7 15
29.07.2020 03:00:00 17,8 12,8 0 0 N 1011,6 15
29.07.2020 02:00:00 18,3 12,8 5 3 WSW 1011,5 16
29.07.2020 01:00:00 18,3 12,8 9 5 W 1011,8 16
29.07.2020 00:00:00 19,4 13,3 8 4 WNW 1011,7 16
28.07.2020 23:00:00 20,0 12,8 8 4 W 1011,6 16
28.07.2020 22:00:00 21,1 13,3 8 4 W 1011,3 16
28.07.2020 21:00:00 23,3 13,9 15 8 WNW 1010,6 16
28.07.2020 20:00:00 25,6 13,3 15 8 W 1010,3 16
28.07.2020 19:00:00 28,3 12,8 22 12 WSW 1009,9 16
28.07.2020 18:00:00 30,6 12,8 24 13 WSW 1009,8 16
28.07.2020 17:00:00 32,2 12,2 22 12 WSW 1009,8 15
28.07.2020 16:00:00 33,3 11,7 26 14 WSW 1009,9 15
28.07.2020 15:00:00 34,4 12,8 24 13 W 1010,5 16
28.07.2020 14:00:00 33,3 12,2 18 10 W 1011,1 16
28.07.2020 13:00:00 32,8 11,1 16 9 WNW 1011,7 16

tt = temperature
td = dewpoint
ff = wind speed
dd = wind direction
ppp = reduced air pressure
vv = visibility

Next stations